Flag for Germany Weather past 2 weeks in Erkrath, North Rhine-Westphalia, Germany

Now
61 °F

Broken clouds.


Feels Like: 61 °F
Forecast: 51 / 64 °F
Wind: 5 mph from Northwest

Location: Duesseldorf

Current Time: Sep 2, 2015 at 9:02:26 PM

Latest Report: Sep 2, 2015 at 8:20 PM


Visibility: N/A

Pressure: 30.01 "Hg

Humidity: 72%

Dew point: 52 °F

Location of ErkrathLocation

Historic Weather in Erkrath — Graph

°F

Erkrath temperature yesterday

Maximum temperature yesterday: 70 °F (at 12:20 AM)
Minimum temperature yesterday: 57 °F (at 11:20 PM)
Average temperature yesterday: 63 °F

Past Weeks' High & Low Weather Summary

 TemperatureHumidityPressure
High90 °F (Aug 30, 3:20 PM)100% (Aug 19, 6:20 AM)30.24 "Hg (Aug 19, 6:20 AM)
Low50 °F (Aug 19, 4:50 AM)30% (Aug 22, 5:20 PM)29.50 "Hg (Aug 24, 4:50 PM)
Average67 °F70%29.97 "Hg
* Reported Aug 18 7:20 PM — Sep 2 7:50 PM, Erkrath, Weather by CustomWeather, © 2015

Note: Actual official high and low records may vary slightly from our data, if they occured in-between our weather recording intervals... More about our weather records

Advertising

Erkrath weather history for previous 24 hours

 ConditionsComfort  
Time TempWeatherWind HumidityBarometerVisibility
7:50 PM
Wed, Sep 2
61 °FBroken clouds.3 mph72%30.01 "HgN/A
7:20 PM61 °FBroken clouds.3 mph72%30.01 "HgN/A
6:50 PM61 °FBroken clouds.3 mph68%30.01 "HgN/A
6:20 PM63 °FScattered clouds.1 mph68%29.98 "HgN/A
5:20 PM61 °FPartly sunny.2 mph72%30.01 "HgN/A
4:50 PM61 °FBroken clouds.3 mph72%30.01 "HgN/A
4:20 PM61 °FPartly sunny.8 mph68%30.01 "HgN/A
3:50 PM63 °FBroken clouds.10 mph68%30.01 "HgN/A
3:20 PM63 °FBroken clouds.12 mph64%30.01 "HgN/A
2:50 PM64 °FSprinkles. Scattered clouds.6 mph64%30.01 "HgN/A
2:20 PM63 °FSprinkles. Broken clouds.8 mph73%30.01 "HgN/A
1:50 PM64 °FScattered showers. Scattered clouds.10 mph60%30.01 "HgN/A
1:20 PM66 °FScattered clouds.9 mph64%30.01 "HgN/A
12:50 PM64 °FPassing clouds.10 mph64%30.01 "HgN/A
12:20 PM64 °FScattered clouds.10 mph64%30.04 "HgN/A
11:50 AM63 °FScattered clouds.8 mph73%30.04 "HgN/A
11:20 AM63 °FScattered clouds.6 mph68%30.04 "HgN/A
10:50 AM63 °FScattered clouds.7 mph73%30.04 "HgN/A
10:20 AM61 °FScattered clouds.7 mph72%30.04 "HgN/A
9:50 AM59 °FPassing clouds.7 mph82%30.04 "HgN/A
9:20 AM57 °FPassing clouds.5 mph88%30.04 "HgN/A
8:50 AM57 °FSunny.7 mph88%30.04 "Hg10 mi
8:20 AM55 °FSunny.8 mph94%30.04 "Hg10 mi
7:50 AM54 °FSunny.6 mph94%30.04 "Hg10 mi
7:20 AM52 °FClear.5 mph94%30.04 "Hg10 mi
6:50 AM52 °FClear.5 mph94%30.04 "Hg10 mi
6:20 AM52 °FFog.5 mph94%30.04 "HgN/A
5:50 AM52 °FClear.5 mph94%30.04 "Hg10 mi
5:20 AM52 °FClear.5 mph94%30.04 "Hg10 mi
4:50 AM52 °FClear.7 mph94%30.07 "Hg10 mi
4:20 AM52 °FClear.6 mph94%30.04 "Hg10 mi
3:50 AM52 °FClear.6 mph94%30.07 "Hg10 mi
3:20 AM52 °FClear.6 mph94%30.07 "Hg10 mi
2:50 AM54 °FClear.6 mph94%30.07 "Hg10 mi
2:20 AM54 °FClear.5 mph88%30.07 "Hg10 mi
1:50 AM54 °FClear.6 mph88%30.07 "Hg10 mi
1:20 AM54 °FClear.5 mph88%30.07 "Hg10 mi
12:50 AM54 °FClear.3 mph94%30.04 "Hg10 mi
11:20 PM
Tue, Sep 1
57 °FClear.6 mph77%30.04 "Hg10 mi
10:50 PM59 °FClear.8 mph77%30.04 "Hg10 mi
10:20 PM59 °FPassing clouds.8 mph77%30.04 "HgN/A
9:50 PM59 °FPassing clouds.7 mph77%30.04 "HgN/A
9:20 PM61 °FPassing clouds.6 mph77%30.04 "HgN/A
Weather by CustomWeather, © 2015

See weather overviewHow to use our weather pages